GW2194 Weather Reports


Display with metric or nautical units.
time (UTC)temp
F
wind
direction
speed
MPH
gust
MPH
rain 1hr
in
rain 24hr
in
rain mn
in
humidity
%
barometer
mb
20260510130747 60 202 5.0 6.0 0.00 0.00 0.00 77 1017.3
20260510130243 58 132 4.0 5.0 0.00 0.00 0.00 79 1016.8
20260510125734 56 148 3.0 4.0 0.00 0.00 0.00 85 1017.3
20260510125230 54 184 0.0 3.0 0.00 0.00 0.00 91 1017.0
20260510124727 52 97 4.0 4.0 0.00 0.00 0.00 95 1016.9
20260510124225 51 269 0.0 2.0 0.00 0.00 0.00 96 1016.7
20260510123720 51 95 2.0 3.0 0.00 0.00 0.00 97 1016.8
20260510123216 51 23 3.0 3.0 0.00 0.00 0.00 97 1016.8
20260510122712 50 185 2.0 3.0 0.00 0.00 0.00 97 1016.9
20260510122209 50 120 1.0 1.0 0.00 0.00 0.00 97 1017.0
20260510121705 49 107 2.0 3.0 0.00 0.00 0.00 97 1017.1
20260510121203 48 59 2.0 3.0 0.00 0.00 0.00 97 1016.9
20260510120659 48 6 1.0 2.0 0.00 0.00 0.00 97 1016.7
20260510120155 48 82 1.0 2.0 0.00 0.00 0.00 97 1016.4
20260510115646 48 288 0.0 2.0 0.00 0.00 0.00 97 1016.3
20260510115144 48 85 2.0 2.0 0.00 0.00 0.00 97 1016.5
20260510114640 47 80 2.0 3.0 0.00 0.00 0.00 97 1016.1
20260510114136 47 82 2.0 4.0 0.00 0.00 0.00 97 1016.2
20260510113631 47 92 2.0 2.0 0.00 0.00 0.00 97 1016.1
20260510113128 47 70 2.0 4.0 0.00 0.00 0.00 97 1016.1
20260510112625 47 92 0.0 3.0 0.00 0.00 0.00 97 1016.2
20260510112116 46 111 0.0 2.0 0.00 0.00 0.00 97 1016.0
20260510111612 46 144 0.0 2.0 0.00 0.00 0.00 97 1016.1
20260510111108 46 68 1.0 3.0 0.00 0.00 0.00 97 1016.0
20260510110604 45 256 0.0 1.0 0.00 0.00 0.00 97 1016.1
20260510105556 45 73 1.0 4.0 0.00 0.00 0.00 97 1016.2
20260510105052 45 85 0.0 4.0 0.00 0.00 0.00 97 1016.1
20260510104548 45 118 2.0 2.0 0.00 0.00 0.00 97 1015.8
20260510104044 45 44 0.0 2.0 0.00 0.00 0.00 97 1016.1
20260510103541 44 55 0.0 0.0 0.00 0.00 0.00 97 1016.1
20260510103037 45 282 0.0 2.0 0.00 0.00 0.00 97 1015.7
20260510102533 45 189 2.0 3.0 0.00 0.00 0.00 97 1015.7
20260510102029 45 100 2.0 3.0 0.00 0.00 0.00 97 1015.7
20260510101527 45 132 2.0 3.0 0.00 0.00 0.00 97 1015.5
20260510101026 45 190 0.0 1.0 0.00 0.00 0.00 97 1015.6
20260510100521 45 199 1.0 2.0 0.00 0.00 0.00 97 1015.4
20260510100019 46 43 0.0 1.0 0.00 0.00 0.00 97 1015.1
20260510095514 45 41 1.0 2.0 0.00 0.00 0.00 96 1015.3
20260510095014 46 126 0.0 2.0 0.00 0.00 0.00 97 1015.3
20260510094508 46 229 0.0 2.0 0.00 0.00 0.00 96 1015.1
20260510094004 46 197 0.0 2.0 0.00 0.00 0.00 96 1015.1
20260510093500 46 30 0.0 2.0 0.00 0.00 0.00 96 1015.2
20260510092957 46 113 1.0 2.0 0.00 0.00 0.00 96 1014.7
20260510092454 46 89 2.0 2.0 0.00 0.00 0.00 96 1014.9
20260510091954 46 84 1.0 3.0 0.00 0.00 0.00 96 1015.0
20260510091451 46 236 1.0 1.0 0.00 0.00 0.00 96 1014.9
20260510090947 46 101 0.0 2.0 0.00 0.00 0.00 96 1014.7
20260510090445 46 119 0.0 2.0 0.00 0.00 0.00 96 1014.7
20260510085939 46 209 0.0 2.0 0.00 0.00 0.00 96 1014.7
20260510085435 47 80 0.0 0.0 0.00 0.00 0.00 96 1014.6
20260510084931 46 109 1.0 2.0 0.00 0.00 0.00 96 1014.8
20260510084428 46 80 0.0 1.0 0.00 0.00 0.00 96 1014.9
20260510083925 46 99 0.0 0.0 0.00 0.00 0.00 96 1014.8
20260510083421 46 87 0.0 1.0 0.00 0.00 0.00 96 1014.8
20260510082916 47 104 0.0 2.0 0.00 0.00 0.00 96 1014.8
20260510082415 47 102 1.0 3.0 0.00 0.00 0.00 96 1014.8
20260510081913 47 269 2.0 3.0 0.00 0.00 0.00 96 1014.6
20260510081409 47 101 2.0 3.0 0.00 0.00 0.00 96 1014.7
20260510080907 47 13 2.0 3.0 0.00 0.00 0.00 96 1014.8
20260510080405 47 234 2.0 2.0 0.00 0.00 0.00 96 1014.6
20260510075903 46 89 3.0 3.0 0.00 0.00 0.00 96 1014.6
20260510075401 46 94 1.0 2.0 0.00 0.00 0.00 96 1014.5
20260510074857 47 192 1.0 2.0 0.00 0.00 0.00 96 1014.6
20260510074354 47 217 0.0 1.0 0.00 0.00 0.00 96 1014.5
20260510073850 47 100 4.0 5.0 0.00 0.00 0.00 96 1014.6
20260510073346 47 213 1.0 2.0 0.00 0.00 0.00 95 1014.7
20260510072842 47 89 1.0 2.0 0.00 0.00 0.00 95 1014.6
20260510072334 47 105 3.0 3.0 0.00 0.00 0.00 96 1014.6
20260510071830 47 94 1.0 3.0 0.00 0.00 0.00 95 1014.6
20260510071326 47 63 0.0 3.0 0.00 0.00 0.00 96 1014.6
20260510070826 47 269 1.0 2.0 0.00 0.00 0.00 96 1014.6
20260510070321 47 124 0.0 2.0 0.00 0.00 0.00 96 1014.5
20260510065816 47 135 0.0 2.0 0.00 0.00 0.00 96 1014.5
20260510065313 47 86 3.0 3.0 0.00 0.00 0.00 96 1014.6
20260510064810 47 55 0.0 3.0 0.00 0.00 0.00 96 1014.5
20260510064308 47 195 0.0 2.0 0.00 0.00 0.00 96 1014.6
20260510063803 47 175 0.0 1.0 0.00 0.00 0.00 96 1014.6
20260510063300 47 158 0.0 3.0 0.00 0.00 0.00 96 1014.9
20260510062757 47 310 0.0 2.0 0.00 0.00 0.00 95 1014.9
20260510062252 47 106 3.0 3.0 0.00 0.00 0.00 96 1014.4
20260510061748 47 50 1.0 2.0 0.00 0.00 0.00 96 1015.1
20260510061245 46 113 2.0 3.0 0.00 0.00 0.00 95 1014.8
20260510060741 46 82 2.0 2.0 0.00 0.00 0.00 95 1015.0
20260510060238 46 98 3.0 3.0 0.00 0.00 0.00 95 1014.9
20260510055735 46 134 1.0 2.0 0.00 0.00 0.00 95 1014.8
20260510055233 46 98 2.0 3.0 0.00 0.00 0.00 95 1014.9
20260510054733 47 51 0.0 2.0 0.00 0.00 0.00 95 1015.0
20260510054229 47 126 1.0 2.0 0.00 0.00 0.00 95 1015.2
20260510053728 47 144 0.0 2.0 0.00 0.00 0.00 95 1014.9
20260510053225 47 101 3.0 3.0 0.00 0.00 0.00 95 1015.0
20260510052721 47 126 2.0 3.0 0.00 0.00 0.00 95 1015.1
20260510052217 47 189 1.0 2.0 0.00 0.00 0.00 95 1015.2
20260510051713 47 246 2.0 3.0 0.00 0.00 0.00 94 1015.1
20260510051209 47 88 3.0 3.0 0.00 0.00 0.00 94 1015.1
20260510050707 47 118 1.0 2.0 0.00 0.00 0.00 94 1015.1
20260510050204 47 107 1.0 2.0 0.00 0.00 0.00 94 1015.2
20260510045701 47 118 1.0 1.0 0.00 0.00 0.00 94 1015.0
20260510045157 47 214 2.0 2.0 0.00 0.00 0.00 94 1015.0
20260510044653 47 244 1.0 1.0 0.00 0.00 0.00 93 1015.0
20260510044151 48 199 0.0 2.0 0.00 0.00 0.00 93 1015.0
20260510043646 48 107 2.0 3.0 0.00 0.00 0.00 93 1014.9
20260510043143 48 104 1.0 2.0 0.00 0.00 0.00 93 1014.8
20260510042641 48 124 0.0 0.0 0.00 0.00 0.00 92 1014.7
20260510042137 48 91 0.0 2.0 0.00 0.00 0.00 92 1014.7
20260510041634 49 91 1.0 2.0 0.00 0.00 0.00 92 1014.7
20260510041131 49 129 2.0 2.0 0.00 0.00 0.00 92 1014.7
20260510040628 49 63 1.0 1.0 0.00 0.00 0.00 91 1014.5
20260510040125 49 104 2.0 3.0 0.00 0.00 0.00 92 1014.4
20260510035620 49 182 1.0 2.0 0.00 0.00 0.00 91 1014.5
20260510035115 49 228 0.0 2.0 0.00 0.00 0.00 91 1014.6
20260510034613 49 191 1.0 2.0 0.00 0.00 0.00 90 1014.4
20260510034110 49 144 1.0 2.0 0.00 0.00 0.00 90 1014.5
20260510033606 50 66 0.0 1.0 0.00 0.00 0.00 90 1014.4
20260510033104 50 124 0.0 3.0 0.00 0.00 0.00 90 1014.4
20260510032600 50 100 2.0 3.0 0.00 0.00 0.00 89 1014.2
20260510032055 50 55 0.0 0.0 0.00 0.00 0.00 88 1014.1
20260510031550 50 107 0.0 1.0 0.00 0.00 0.00 88 1014.2
20260510031047 50 76 0.0 2.0 0.00 0.00 0.00 88 1014.2
20260510030542 50 116 0.0 3.0 0.00 0.00 0.00 88 1014.2
20260510030040 51 193 0.0 3.0 0.00 0.00 0.00 88 1014.1
20260510025537 50 78 1.0 2.0 0.00 0.00 0.00 88 1014.4
20260510025034 50 89 0.0 2.0 0.00 0.00 0.00 88 1014.2
20260510024531 50 209 1.0 3.0 0.00 0.00 0.00 87 1014.0
20260510024027 50 109 1.0 2.0 0.00 0.00 0.00 87 1014.3
20260510023523 50 190 0.0 2.0 0.00 0.00 0.00 86 1014.0
20260510023021 51 147 0.0 2.0 0.00 0.00 0.00 86 1014.1
20260510022520 51 99 1.0 2.0 0.00 0.00 0.00 85 1013.9
20260510022014 51 206 0.0 2.0 0.00 0.00 0.00 85 1014.0
20260510021511 51 157 1.0 1.0 0.00 0.00 0.00 84 1013.9
20260510021008 52 108 1.0 2.0 0.00 0.00 0.00 83 1013.7
20260510020503 52 110 2.0 3.0 0.00 0.00 0.00 83 1013.7
20260510015958 52 147 0.0 2.0 0.00 0.00 0.00 83 1013.7
20260510015454 52 230 2.0 2.0 0.00 0.00 0.00 83 1013.5
20260510014949 52 112 0.0 1.0 0.00 0.00 0.00 83 1013.4
20260510014447 53 96 2.0 2.0 0.00 0.00 0.00 82 1013.4
20260510013944 53 122 0.0 2.0 0.00 0.00 0.00 82 1013.3
20260510013433 53 89 0.0 0.0 0.00 0.00 0.00 82 1013.2
20260510012929 53 122 0.0 1.0 0.00 0.00 0.00 81 1013.1
20260510012424 53 60 0.0 1.0 0.00 0.00 0.00 79 1013.2
20260510011918 54 224 0.0 2.0 0.00 0.00 0.00 79 1012.9
20260510011414 54 93 0.0 1.0 0.00 0.00 0.00 78 1012.9
20260510010910 55 166 0.0 1.0 0.00 0.00 0.00 77 1012.9
20260510010408 55 240 0.0 1.0 0.00 0.00 0.00 77 1012.7
20260510005904 55 95 0.0 2.0 0.00 0.00 0.00 75 1012.6
20260510005400 56 50 0.0 0.0 0.00 0.00 0.00 72 1012.5
20260510004858 57 76 0.0 0.0 0.00 0.00 0.00 70 1012.5
20260510004355 57 113 0.0 3.0 0.00 0.00 0.00 68 1012.3
20260510003853 58 42 0.0 1.0 0.00 0.00 0.00 66 1012.1
20260510003350 59 229 1.0 2.0 0.00 0.00 0.00 64 1012.0
20260510002848 60 136 1.0 3.0 0.00 0.00 0.00 61 1012.1
20260510002346 61 309 0.0 0.0 0.00 0.00 0.00 57 1012.1
20260510001842 62 116 0.0 1.0 0.00 0.00 0.00 54 1011.8
20260510001341 63 51 0.0 2.0 0.00 0.00 0.00 53 1012.0
20260510000836 63 65 3.0 3.0 0.00 0.00 0.00 53 1012.2
20260510000334 64 94 2.0 3.0 0.00 0.00 0.00 52 1012.1
20260509235830 64 259 0.0 5.0 0.00 0.00 0.00 51 1012.0
20260509235327 64 107 3.0 5.0 0.00 0.00 0.00 52 1012.0
20260509234823 64 349 2.0 3.0 0.00 0.00 0.00 53 1011.7
20260509234320 64 259 4.0 4.0 0.00 0.00 0.00 51 1011.9
20260509233818 64 97 3.0 3.0 0.00 0.00 0.00 50 1011.8
20260509233316 64 105 4.0 9.0 0.00 0.00 0.00 50 1011.8
20260509232811 65 269 0.0 2.0 0.00 0.00 0.00 53 1011.7
20260509232309 65 297 1.0 5.0 0.00 0.00 0.00 50 1011.7
20260509231805 65 209 2.0 7.0 0.00 0.00 0.00 50 1011.9
20260509231302 66 190 3.0 5.0 0.00 0.00 0.00 49 1011.7
20260509230800 66 199 3.0 7.0 0.00 0.00 0.00 48 1011.9
20260509230256 67 216 3.0 6.0 0.00 0.00 0.00 49 1011.7
20260509225751 68 230 6.0 8.0 0.00 0.00 0.00 47 1011.7
20260509225248 68 241 3.0 4.0 0.00 0.00 0.00 46 1011.4
20260509224744 68 220 2.0 4.0 0.00 0.00 0.00 47 1011.7
20260509224241 68 198 2.0 6.0 0.00 0.00 0.00 45 1011.9
20260509223738 67 39 3.0 7.0 0.00 0.00 0.00 47 1011.7
20260509223235 68 354 4.0 12.0 0.00 0.00 0.00 46 1011.9
20260509222732 68 315 3.0 7.0 0.00 0.00 0.00 47 1012.2
20260509222227 68 272 2.0 5.0 0.00 0.00 0.00 46 1012.2
20260509221723 67 177 3.0 11.0 0.00 0.00 0.00 45 1012.1
20260509221219 68 60 4.0 8.0 0.00 0.00 0.00 47 1012.1
20260509220715 66 304 6.0 6.0 0.00 0.00 0.00 49 1012.2
20260509220212 66 241 7.0 11.0 0.00 0.00 0.00 48 1012.3
20260509215707 66 66 0.0 5.0 0.00 0.00 0.00 48 1012.1
20260509215204 66 231 5.0 7.0 0.00 0.00 0.00 48 1012.3
20260509214701 66 26 4.0 10.0 0.00 0.00 0.00 49 1012.4
20260509214158 66 332 2.0 11.0 0.00 0.00 0.00 46 1012.2
20260509213655 67 232 10.0 14.0 0.00 0.00 0.00 45 1012.1
20260509213151 68 222 7.0 12.0 0.00 0.00 0.00 45 1012.1
20260509212648 67 354 3.0 6.0 0.00 0.00 0.00 45 1012.1
20260509212145 67 198 3.0 8.0 0.00 0.00 0.00 44 1012.0
20260509211641 66 259 2.0 13.0 0.00 0.00 0.00 44 1012.1
20260509211138 69 240 5.0 9.0 0.00 0.00 0.00 45 1011.8
20260509210635 66 221 7.0 10.0 0.00 0.00 0.00 47 1011.9
20260509210132 67 0 1.0 9.0 0.00 0.00 0.00 49 1011.7
20260509205627 69 208 5.0 8.0 0.00 0.00 0.00 44 1011.4
20260509205121 69 249 3.0 5.0 0.00 0.00 0.00 48 1011.7
20260509204617 67 281 3.0 5.0 0.00 0.00 0.00 45 1011.5
20260509204114 67 356 5.0 10.0 0.00 0.00 0.00 48 1011.7
20260509203610 65 286 4.0 6.0 0.00 0.00 0.00 51 1011.5
20260509203103 66 5 5.0 10.0 0.00 0.00 0.00 48 1011.5
20260509202557 66 338 10.0 11.0 0.00 0.00 0.00 49 1011.8
20260509202053 66 130 1.0 6.0 0.00 0.00 0.00 50 1011.8
20260509201548 67 321 4.0 11.0 0.00 0.00 0.00 49 1011.7
20260509201046 67 301 5.0 7.0 0.00 0.00 0.00 49 1011.7
20260509200545 66 341 3.0 4.0 0.00 0.00 0.00 49 1011.5
20260509200042 66 292 3.0 5.0 0.00 0.00 0.00 49 1011.9
20260509195537 65 297 2.0 7.0 0.00 0.00 0.00 51 1011.7
20260509195032 66 337 8.0 10.0 0.00 0.00 0.00 49 1011.7
20260509194527 65 256 0.0 7.0 0.00 0.00 0.00 52 1011.8
20260509194025 65 358 3.0 4.0 0.00 0.00 0.00 50 1011.7
20260509193524 65 10 0.0 5.0 0.00 0.00 0.00 49 1011.9
20260509193022 65 7 5.0 6.0 0.00 0.00 0.00 48 1011.5
20260509192518 66 307 4.0 5.0 0.00 0.00 0.00 50 1011.8
20260509192013 65 327 1.0 5.0 0.00 0.00 0.00 47 1011.7
20260509191508 66 61 3.0 10.0 0.00 0.00 0.00 48 1011.7
20260509191004 66 218 5.0 11.0 0.00 0.00 0.00 47 1011.7
20260509190501 66 7 2.0 5.0 0.00 0.00 0.00 47 1011.4
20260509185959 67 0 4.0 6.0 0.00 0.00 0.00 47 1011.7
20260509185455 67 305 5.0 8.0 0.00 0.00 0.00 43 1011.5
20260509184952 67 182 3.0 5.0 0.00 0.00 0.00 46 1011.4
20260509184451 67 215 3.0 8.0 0.00 0.00 0.00 43 1011.5
20260509183947 67 228 6.0 15.0 0.00 0.00 0.00 46 1011.3
20260509183441 66 203 5.0 7.0 0.00 0.00 0.00 44 1011.5
20260509182938 67 164 1.0 8.0 0.00 0.00 0.00 43 1011.7
20260509182434 67 10 1.0 10.0 0.00 0.00 0.00 42 1011.5
20260509181931 66 29 3.0 7.0 0.00 0.00 0.00 45 1011.3
20260509181430 66 253 9.0 10.0 0.00 0.00 0.00 45 1011.5
20260509180927 66 244 3.0 7.0 0.00 0.00 0.00 48 1011.5
20260509180421 66 215 2.0 9.0 0.00 0.00 0.00 45 1011.7
20260509175918 66 267 2.0 5.0 0.00 0.00 0.00 43 1011.5
20260509175409 67 202 5.0 9.0 0.00 0.00 0.00 45 1011.7
20260509174905 65 201 4.0 7.0 0.00 0.00 0.00 44 1011.7
20260509174401 64 219 4.0 9.0 0.00 0.00 0.00 46 1011.7
20260509173857 65 175 7.0 12.0 0.00 0.00 0.00 46 1011.9
20260509173352 64 195 3.0 7.0 0.00 0.00 0.00 44 1011.9
20260509172848 64 114 3.0 7.0 0.00 0.00 0.00 49 1011.8
20260509172345 64 215 5.0 11.0 0.00 0.00 0.00 45 1012.1
20260509171841 64 234 3.0 7.0 0.00 0.00 0.00 46 1011.9
20260509171337 63 262 0.0 8.0 0.00 0.00 0.00 48 1012.0
20260509170834 63 252 5.0 5.0 0.00 0.00 0.00 50 1012.3
20260509170330 63 241 6.0 8.0 0.00 0.00 0.00 46 1012.3
20260509165824 63 245 5.0 6.0 0.00 0.00 0.00 48 1012.3
20260509165319 63 256 3.0 8.0 0.00 0.00 0.00 47 1012.3
20260509164815 62 228 2.0 8.0 0.00 0.00 0.00 47 1012.5
20260509164312 61 123 1.0 3.0 0.00 0.00 0.00 49 1012.2
20260509163808 61 223 0.0 3.0 0.00 0.00 0.00 49 1012.3
20260509163305 61 204 2.0 5.0 0.00 0.00 0.00 48 1012.5
20260509162804 61 131 2.0 4.0 0.00 0.00 0.00 54 1012.5
20260509162257 61 199 2.0 3.0 0.00 0.00 0.00 50 1012.4
20260509161753 60 202 0.0 3.0 0.00 0.00 0.00 51 1012.5
20260509161249 60 209 0.0 2.0 0.00 0.00 0.00 49 1012.5
20260509160745 61 229 3.0 3.0 0.00 0.00 0.00 51 1012.2
20260509160241 60 336 0.0 5.0 0.00 0.00 0.00 51 1012.3
20260509155737 60 218 1.0 2.0 0.00 0.00 0.00 49 1012.7
20260509155234 61 230 6.0 6.0 0.00 0.00 0.00 59 1012.8
20260509154729 60 212 2.0 4.0 0.00 0.00 0.00 55 1012.7
20260509154227 60 221 4.0 7.0 0.00 0.00 0.00 56 1012.8
20260509153724 59 219 3.0 4.0 0.00 0.00 0.00 58 1012.8
20260509153220 59 48 1.0 2.0 0.00 0.00 0.00 60 1012.9
20260509152716 58 203 1.0 2.0 0.00 0.00 0.00 58 1013.2
20260509152213 59 311 2.0 2.0 0.00 0.00 0.00 58 1013.5
20260509151710 58 81 0.0 1.0 0.00 0.00 0.00 60 1013.3
20260509151207 57 301 0.0 1.0 0.00 0.00 0.00 63 1013.3
20260509150705 57 36 0.0 3.0 0.00 0.00 0.00 65 1013.4
20260509150203 58 255 1.0 3.0 0.00 0.00 0.00 65 1013.4
20260509145659 58 202 3.0 4.0 0.00 0.00 0.00 65 1013.3
20260509145154 58 237 0.0 4.0 0.00 0.00 0.00 64 1013.0
20260509144651 58 321 2.0 4.0 0.00 0.00 0.00 64 1013.2
20260509144148 58 347 2.0 3.0 0.00 0.00 0.00 64 1013.0
20260509143645 57 328 1.0 4.0 0.00 0.00 0.00 69 1013.2
20260509143143 57 338 1.0 3.0 0.00 0.00 0.00 71 1013.2
20260509142638 57 350 3.0 4.0 0.00 0.00 0.00 67 1013.1
20260509142135 57 8 3.0 6.0 0.00 0.00 0.00 66 1013.2
20260509141631 56 142 0.0 2.0 0.00 0.00 0.00 68 1013.1
20260509141127 56 335 3.0 3.0 0.00 0.00 0.00 73 1013.0
20260509140624 54 28 0.0 3.0 0.00 0.00 0.00 71 1013.0
20260509140122 55 235 3.0 3.0 0.00 0.00 0.00 72 1013.3
20260509135619 53 240 0.0 1.0 0.00 0.00 0.00 73 1013.4
20260509135117 54 68 2.0 3.0 0.00 0.00 0.00 73 1013.1
20260509134613 53 101 2.0 2.0 0.00 0.00 0.00 74 1013.3
20260509134111 53 240 2.0 2.0 0.00 0.00 0.00 74 1013.3
20260509133608 52 283 1.0 1.0 0.00 0.00 0.00 76 1013.5
20260509133105 52 186 0.0 3.0 0.00 0.00 0.00 76 1013.7
20260509132603 52 248 0.0 1.0 0.00 0.00 0.00 77 1013.6
20260509132102 52 81 1.0 2.0 0.00 0.00 0.00 77 1013.4
20260509131557 52 52 0.0 2.0 0.00 0.00 0.00 79 1013.4
20260509131054 51 36 0.0 3.0 0.00 0.00 0.00 77 1013.4